Location: Kellogg
(38.0159°N, 90.0546°W)
Time: 06:40:08
(UTC+00:00)

Vanguard 1 Rocket - Pass Details

Date: 14 September 2024
Orbit: 650 x 4218 km, 34.3° (Epoch: 05 October)

Event Time Altitude Azimuth Distance (km) Brightness Sun altitude
Rises 08:55:35 0° 227° (SW) 5,096 - -31.5°
Reaches altitude 10° 08:58:23 10° 222° (SW) 4,460 - -31.0°
Exits shadow 09:04:38 37° 203° (SSW) 3,480 9.8 -30.0°
Maximum altitude 09:11:31 56° 148° (SSE) 3,451 10.1 -28.9°
Drops below altitude 10° 09:34:26 10° 79° (ENE) 7,333 13.0 -24.9°
Sets 09:40:42 0° 76° (ENE) 8,464 13.7 -23.8°
